Radiation Dose at Monitoring Post of Fukushima Daini Nuclear Power Station
Date,Time,MP-1(microSv/h),MP-2(microSv/h),MP-3(microSv/h),MP-4(microSv/h),MP-5(microSv/h),MP-6(microSv/h),MP-7(microSv/h),Wind Direction,Wind Velocity(m/s),Rain
2015/03/30,00:00,0.555,0.342,0.583,0.538,0.562,0.259,0.233,northwest,2.8,No
2015/03/30,00:10,0.552,0.343,0.584,0.541,0.563,0.259,0.233,northwest,2.6,No
2015/03/30,00:20,0.556,0.343,0.583,0.538,0.563,0.259,0.233,north-northwest,1.7,No
2015/03/30,00:30,0.552,0.342,0.582,0.540,0.563,0.259,0.232,north,3.9,No
2015/03/30,00:40,0.553,0.343,0.584,0.539,0.562,0.259,0.232,north,2.8,No
2015/03/30,00:50,0.553,0.341,0.585,0.538,0.562,0.258,0.232,north,2.4,No
2015/03/30,01:00,0.551,0.342,0.583,0.539,0.563,0.258,0.232,north,2.8,No
2015/03/30,01:10,0.554,0.343,0.584,0.540,0.563,0.260,0.231,north,2.4,No
2015/03/30,01:20,0.552,0.341,0.584,0.539,0.563,0.258,0.234,north-northwest,1.5,No
2015/03/30,01:30,0.554,0.340,0.581,0.538,0.563,0.260,0.232,north-northwest,0.9,No
2015/03/30,01:40,0.553,0.344,0.584,0.540,0.559,0.258,0.233,-,CALM,No
2015/03/30,01:50,0.553,0.341,0.583,0.536,0.563,0.258,0.233,-,CALM,No
2015/03/30,02:00,0.553,0.341,0.582,0.541,0.562,0.261,0.234,-,CALM,No
2015/03/30,02:10,0.554,0.342,0.586,0.539,0.560,0.260,0.233,north-northeast,1.1,No
2015/03/30,02:20,0.551,0.341,0.583,0.537,0.563,0.259,0.234,northwest,1.6,No
2015/03/30,02:30,0.554,0.341,0.581,0.538,0.563,0.258,0.233,north-northwest,1.6,No
2015/03/30,02:40,0.555,0.343,0.585,0.540,0.560,0.259,0.232,northeast,1.8,No
2015/03/30,02:50,0.553,0.343,0.582,0.538,0.562,0.259,0.233,northeast,1.2,No
2015/03/30,03:00,0.555,0.342,0.583,0.540,0.562,0.258,0.232,north-northeast,1.4,No
2015/03/30,03:10,0.554,0.343,0.584,0.539,0.561,0.259,0.234,east-northeast,1.8,No
2015/03/30,03:20,0.552,0.342,0.582,0.539,0.563,0.259,0.233,northeast,2.6,No
2015/03/30,03:30,0.554,0.341,0.582,0.542,0.563,0.260,0.233,north-northeast,3.4,No
2015/03/30,03:40,0.553,0.342,0.586,0.539,0.560,0.259,0.232,north,4.6,No
2015/03/30,03:50,0.553,0.342,0.583,0.537,0.561,0.258,0.232,north,4.8,No
2015/03/30,04:00,0.555,0.342,0.582,0.538,0.562,0.258,0.233,north-northwest,5.3,No
2015/03/30,04:10,0.555,0.341,0.585,0.540,0.559,0.259,0.233,north-northwest,5.1,No
2015/03/30,04:20,0.553,0.342,0.583,0.537,0.562,0.259,0.233,north-northwest,3.4,No
2015/03/30,04:30,0.554,0.342,0.580,0.540,0.563,0.260,0.232,north,2.9,No
2015/03/30,04:40,-,-,-,-,-,-,-,-,-,-
2015/03/30,04:50,0.552,0.342,0.583,0.536,0.563,0.258,0.233,north-northwest,3.9,No
2015/03/30,05:00,0.553,0.342,0.584,0.539,0.563,0.259,0.232,north-northwest,3.5,No
2015/03/30,05:10,0.553,0.342,0.585,0.542,0.562,0.259,0.233,northwest,4.2,No
2015/03/30,05:20,0.552,0.341,0.582,0.537,0.559,0.259,0.233,northwest,2.5,No
2015/03/30,05:30,0.555,0.342,0.580,0.538,0.560,0.258,0.233,northwest,3.6,No
2015/03/30,05:40,0.554,0.342,0.581,0.541,0.560,0.258,0.232,northwest,4.0,No
2015/03/30,05:50,0.552,0.340,0.582,0.538,0.561,0.258,0.233,northwest,3.6,No
2015/03/30,06:00,0.553,0.341,0.582,0.538,0.560,0.258,0.232,north,1.7,No
2015/03/30,06:10,0.553,0.342,0.582,0.537,0.560,0.257,0.232,north-northeast,1.9,No
2015/03/30,06:20,0.553,0.341,0.584,0.537,0.560,0.258,0.232,north,1.7,No
2015/03/30,06:30,0.554,0.342,0.581,0.535,0.563,0.259,0.232,north-northwest,3.3,No
2015/03/30,06:40,0.554,0.341,0.582,0.541,0.559,0.259,0.233,north-northwest,4.2,No
2015/03/30,06:50,0.552,0.342,0.585,0.536,0.560,0.259,0.231,north,4.3,No
2015/03/30,07:00,0.553,0.341,0.582,0.535,0.562,0.258,0.232,north,3.4,No
2015/03/30,07:10,0.552,0.341,0.582,0.538,0.561,0.259,0.232,north,3.1,No
2015/03/30,07:20,0.551,0.343,0.585,0.536,0.561,0.259,0.231,north,3.5,No
2015/03/30,07:30,0.554,0.340,0.581,0.538,0.560,0.259,0.233,north,2.9,No
2015/03/30,07:40,0.552,0.343,0.582,0.535,0.558,0.259,0.232,north,2.1,No
2015/03/30,07:50,0.557,0.340,0.582,0.537,0.563,0.259,0.232,north-northwest,2.2,No
2015/03/30,08:00,0.551,0.342,0.581,0.536,0.560,0.259,0.232,north,2.5,No
2015/03/30,08:10,0.552,0.339,0.583,0.539,0.564,0.259,0.231,north,1.3,No
2015/03/30,08:20,0.553,0.341,0.580,0.531,0.562,0.259,0.232,north,1.5,No
2015/03/30,08:30,0.552,0.339,0.582,0.539,0.564,0.258,0.231,north-northeast,1.9,No
2015/03/30,08:40,0.552,0.342,0.578,0.534,0.562,0.259,0.232,north,1.7,No
2015/03/30,08:50,0.551,0.339,0.585,0.535,0.565,0.259,0.231,-,CALM,No
2015/03/30,09:00,0.549,0.340,0.581,0.537,0.559,0.259,0.232,-,CALM,No
2015/03/30,09:10,0.552,0.342,0.583,0.534,0.566,0.258,0.232,-,CALM,No
2015/03/30,09:20,0.548,0.339,0.580,0.540,0.556,0.257,0.230,west-southwest,0.8,No
2015/03/30,09:30,0.554,0.341,0.584,0.536,0.563,0.260,0.232,-,CALM,No
2015/03/30,09:40,0.552,0.341,0.580,0.532,0.561,0.257,0.231,south-southeast,1.5,No
2015/03/30,09:50,0.549,0.338,0.583,0.540,0.557,0.258,0.231,southeast,2.9,No
2015/03/30,10:00,0.554,0.343,0.580,0.537,0.565,0.259,0.233,east,3.2,No
2015/03/30,10:10,0.551,0.340,0.586,0.533,0.561,0.258,0.230,east-northeast,2.8,No
2015/03/30,10:20,0.552,0.342,0.580,0.541,0.560,0.259,0.232,east-northeast,4.4,No
2015/03/30,10:30,0.554,0.343,0.584,0.538,0.564,0.258,0.233,east-northeast,4.1,No
2015/03/30,10:40,0.551,0.341,0.580,0.537,0.563,0.259,0.231,east-northeast,2.3,No
2015/03/30,10:50,0.554,0.343,0.582,0.539,0.568,0.256,0.233,east-northeast,1.6,No
2015/03/30,11:00,0.550,0.340,0.578,0.534,0.560,0.260,0.232,east-northeast,1.8,No
2015/03/30,11:10,0.556,0.343,0.584,0.538,0.567,0.259,0.233,northeast,3.5,No
2015/03/30,11:20,0.552,0.339,0.579,0.537,0.559,0.258,0.232,north-northeast,3.9,No
2015/03/30,11:30,0.553,0.342,0.582,0.537,0.564,0.259,0.234,northeast,3.3,No
2015/03/30,11:40,0.554,0.341,0.582,0.541,0.565,0.258,0.233,northeast,4.1,No
2015/03/30,11:50,0.548,0.340,0.578,0.535,0.560,0.258,0.233,northeast,3.9,No
2015/03/30,12:00,0.556,0.344,0.585,0.537,0.566,0.257,0.234,northeast,4.2,No
2015/03/30,12:10,0.551,0.340,0.581,0.540,0.559,0.257,0.232,northeast,3.3,No
2015/03/30,12:20,0.555,0.342,0.580,0.535,0.564,0.257,0.233,northeast,4.4,No
2015/03/30,12:30,0.553,0.341,0.587,0.539,0.563,0.259,0.232,east-northeast,4.3,No
2015/03/30,12:40,0.550,0.342,0.580,0.540,0.559,0.257,0.234,northeast,4.0,No
2015/03/30,12:50,0.556,0.344,0.580,0.534,0.565,0.257,0.232,northeast,4.7,No
2015/03/30,13:00,0.552,0.341,0.584,0.538,0.560,0.258,0.233,east-northeast,3.8,No
2015/03/30,13:10,0.555,0.344,0.580,0.539,0.562,0.257,0.232,east-northeast,3.1,No
2015/03/30,13:20,0.553,0.339,0.577,0.534,0.565,0.259,0.232,east-northeast,3.8,No
2015/03/30,13:30,0.553,0.344,0.583,0.542,0.560,0.258,0.233,northeast,2.5,No
2015/03/30,13:40,0.557,0.341,0.580,0.538,0.565,0.260,0.231,east-northeast,3.5,No
2015/03/30,13:50,0.550,0.342,0.577,0.536,0.566,0.258,0.234,east-northeast,3.3,No
2015/03/30,14:00,0.559,0.342,0.585,0.543,0.559,0.257,0.232,east-northeast,2.3,No
2015/03/30,14:10,0.550,0.341,0.582,0.537,0.566,0.258,0.233,east-northeast,1.3,No
2015/03/30,14:20,0.555,0.343,0.578,0.541,0.563,0.259,0.233,north-northeast,1.1,No
2015/03/30,14:30,0.553,0.341,0.588,0.541,0.558,0.259,0.232,east-northeast,0.8,No
2015/03/30,14:40,0.551,0.344,0.584,0.535,0.568,0.256,0.234,east,0.6,No
2015/03/30,14:50,0.555,0.342,0.580,0.542,0.561,0.259,0.233,east,0.7,No
2015/03/30,15:00,0.551,0.343,0.585,0.537,0.563,0.257,0.233,-,CALM,No
2015/03/30,15:10,0.557,0.341,0.581,0.541,0.565,0.259,0.233,-,CALM,No
2015/03/30,15:20,0.551,0.344,0.586,0.538,0.560,0.258,0.233,north-northeast,0.7,No
2015/03/30,15:30,0.556,0.341,0.585,0.541,0.565,0.257,0.234,north-northeast,0.8,No
2015/03/30,15:40,0.554,0.342,0.585,0.538,0.566,0.260,0.233,northeast,0.9,No
2015/03/30,15:50,0.554,0.343,0.586,0.544,0.562,0.258,0.233,east-northeast,1.5,No
2015/03/30,16:00,0.553,0.343,0.585,0.539,0.568,0.257,0.233,northeast,1.0,No
2015/03/30,16:10,0.555,0.342,0.586,0.543,0.559,0.258,0.233,northeast,1.1,No
2015/03/30,16:20,0.556,0.343,0.585,0.540,0.567,0.258,0.234,east-northeast,2.4,No
2015/03/30,16:30,0.552,0.342,0.584,0.543,0.565,0.257,0.231,east-northeast,2.5,No
2015/03/30,16:40,0.556,0.343,0.585,0.537,0.565,0.260,0.233,northeast,1.5,No
2015/03/30,16:50,0.553,0.343,0.584,0.541,0.566,0.258,0.234,north-northeast,1.4,No
2015/03/30,17:00,0.553,0.342,0.586,0.537,0.562,0.259,0.233,north-northeast,0.8,No
2015/03/30,17:10,0.554,0.343,0.586,0.541,0.568,0.259,0.235,-,CALM,No
2015/03/30,17:20,0.555,0.343,0.586,0.540,0.561,0.260,0.232,-,CALM,No
2015/03/30,17:30,0.554,0.344,0.583,0.542,0.567,0.259,0.233,east-northeast,0.6,No
2015/03/30,17:40,0.554,0.343,0.586,0.539,0.562,0.260,0.232,south-southeast,0.7,No
2015/03/30,17:50,0.557,0.342,0.581,0.540,0.569,0.258,0.234,south,0.9,No
2015/03/30,18:00,0.553,0.342,0.587,0.543,0.564,0.259,0.233,south,1.1,No
2015/03/30,18:10,0.554,0.344,0.583,0.539,0.566,0.258,0.232,south,1.3,No
2015/03/30,18:20,0.555,0.343,0.586,0.540,0.567,0.258,0.233,south,1.1,No
2015/03/30,18:30,0.559,0.342,0.587,0.540,0.563,0.258,0.233,south-southwest,1.1,No
2015/03/30,18:40,0.554,0.343,0.584,0.539,0.566,0.259,0.233,-,CALM,No
2015/03/30,18:50,0.554,0.342,0.588,0.543,0.565,0.258,0.232,south,0.6,No
2015/03/30,19:00,0.555,0.342,0.582,0.541,0.566,0.259,0.233,south,1.1,No
2015/03/30,19:10,0.553,0.342,0.587,0.543,0.564,0.260,0.233,south,1.8,No
2015/03/30,19:20,0.556,0.342,0.584,0.540,0.562,0.259,0.233,south,1.1,No
2015/03/30,19:30,0.553,0.340,0.582,0.539,0.563,0.258,0.233,south,0.8,No
2015/03/30,19:40,0.554,0.342,0.586,0.541,0.562,0.257,0.233,east-southeast,0.5,No
2015/03/30,19:50,0.555,0.343,0.585,0.540,0.564,0.258,0.234,south,1.2,No
2015/03/30,20:00,0.554,0.340,0.583,0.541,0.561,0.259,0.234,south,1.1,No
2015/03/30,20:10,0.556,0.343,0.585,0.541,0.560,0.259,0.234,south-southwest,1.1,No
2015/03/30,20:20,0.554,0.342,0.584,0.539,0.564,0.259,0.232,south-southwest,1.8,No
2015/03/30,20:30,0.553,0.342,0.585,0.541,0.562,0.259,0.236,south-southwest,3.3,No
2015/03/30,20:40,0.556,0.344,0.586,0.541,0.563,0.259,0.232,south-southwest,3.1,No
2015/03/30,20:50,0.555,0.344,0.584,0.539,0.563,0.258,0.232,south-southwest,4.7,No
2015/03/30,21:00,0.556,0.340,0.586,0.538,0.562,0.258,0.233,south-southwest,4.2,No
2015/03/30,21:10,0.556,0.343,0.585,0.540,0.563,0.260,0.233,south-southwest,3.5,No
2015/03/30,21:20,0.554,0.342,0.583,0.540,0.564,0.259,0.234,south-southwest,3.3,No
2015/03/30,21:30,0.556,0.342,0.587,0.541,0.563,0.259,0.233,south-southwest,2.8,No
2015/03/30,21:40,0.557,0.344,0.586,0.542,0.565,0.259,0.234,south-southwest,3.1,No
2015/03/30,21:50,0.553,0.341,0.584,0.541,0.561,0.259,0.233,south-southwest,3.1,No
2015/03/30,22:00,0.555,0.343,0.585,0.539,0.562,0.260,0.234,south-southwest,3.1,No
2015/03/30,22:10,0.556,0.342,0.586,0.541,0.564,0.259,0.234,south-southwest,3.1,No
2015/03/30,22:20,0.554,0.344,0.584,0.539,0.564,0.259,0.234,south,3.1,No
2015/03/30,22:30,0.556,0.343,0.587,0.540,0.562,0.260,0.233,south-southwest,2.8,No
2015/03/30,22:40,0.555,0.342,0.587,0.542,0.564,0.259,0.234,south-southwest,2.6,No
2015/03/30,22:50,0.552,0.344,0.583,0.539,0.562,0.259,0.234,south,2.7,No
2015/03/30,23:00,0.558,0.341,0.585,0.541,0.562,0.258,0.234,south,3.1,No
2015/03/30,23:10,0.554,0.341,0.585,0.541,0.562,0.259,0.234,south,3.1,No
2015/03/30,23:20,0.555,0.342,0.585,0.541,0.562,0.260,0.233,south,3.6,No
2015/03/30,23:30,0.557,0.342,0.587,0.539,0.561,0.259,0.234,south,3.3,No
2015/03/30,23:40,0.554,0.343,0.587,0.542,0.564,0.260,0.235,south,2.3,No
2015/03/30,23:50,0.554,0.343,0.583,0.542,0.563,0.260,0.234,south,1.7,No
